Terug naar catalogus

COSMOS 1823 DEB

ActiefLEO
NORAD 43322·DEBRIS·🇷🇺 Russia

Gelanceerd Feb 20, 1987 vanaf Plesetsk Cosmodrome

Loading…

Volgende Passages (komende 24 uur)

TLE

VersSource: Space-Track

Epoch: Sep 14, 2026, 01:14 UTC

1 43322U 87020FK  26257.05179388  .00000158  00000-0  12678-2 0  9994
2 43322  73.5909 277.2358 0022249 121.1604 239.1626 12.42715492457841

Volg COSMOS 1823 DEB in realtime met AllMySat

Download on the App Store